When you browse on this site, cookies collect data to enhance your experience and personalize the content and advertising you see.
Visit our Privacy Policy to learn more. By continuing to use the site, you agree to this use of cookies and data.
  • In Switzerland
  • List of Countries
  • For 7 days
  • Water Temperature
  • Weather Map
  • Weather Widgets
  • user-avatar
    Login

    Hourly Weather Diapaga

    Today, 2 June, Tuesday

    Time Temperature Precipitation Wind Pressure Humidity
    00:00 +34°C° 0 mm 6 mps 735 mmHg 47%
    01:00 +33°C° 0 mm 6 mps 735 mmHg 51%
    02:00 +33°C° 0 mm 5 mps 734 mmHg 55%
    03:00 +32°C° 0 mm 5 mps 734 mmHg 59%
    04:00 +30°C° 0 mm 5 mps 734 mmHg 59%
    05:00 +30°C° 0 mm 4 mps 734 mmHg 60%
    06:00 +29°C° 0 mm 4 mps 735 mmHg 60%
    07:00 +32°C° 0 mm 4 mps 735 mmHg 55%
    08:00 +33°C° 0 mm 4 mps 735 mmHg 50%
    09:00 +35°C° 0 mm 4 mps 736 mmHg 46%
    10:00 +37°C° 0 mm 4 mps 735 mmHg 41%
    11:00 +40°C° 0 mm 4 mps 735 mmHg 35%
    12:00 +42°C° 0 mm 4 mps 735 mmHg 30%
    13:00 +43°C° 0 mm 3 mps 734 mmHg 28%
    14:00 +43°C° 0 mm 2 mps 733 mmHg 25%
    15:00 +45°C° 0 mm 2 mps 732 mmHg 22%
    16:00 +43°C° 0 mm 2 mps 732 mmHg 23%
    17:00 +42°C° 0 mm 2 mps 732 mmHg 23%
    18:00 +41°C° 0 mm 2 mps 732 mmHg 24%
    19:00 +40°C° 0 mm 3 mps 732 mmHg 28%
    20:00 +40°C° 0 mm 4 mps 733 mmHg 32%
    21:00 +38°C° 0 mm 4 mps 733 mmHg 35%
    22:00 +37°C° 0 mm 4 mps 734 mmHg 40%
    23:00 +35°C° 0 mm 5 mps 734 mmHg 44%

    Tomorrow, 3 June, Wednesday

    Time Temperature Precipitation Wind Pressure Humidity
    00:00 +34°C° 0 mm 5 mps 734 mmHg 48%
    01:00 +34°C° 0 mm 5 mps 733 mmHg 49%
    02:00 +34°C° 0 mm 6 mps 733 mmHg 50%
    03:00 +33°C° 0 mm 6 mps 733 mmHg 52%
    04:00 +33°C° 0 mm 6 mps 733 mmHg 55%
    05:00 +32°C° 0 mm 5 mps 733 mmHg 58%
    06:00 +32°C° 0 mm 5 mps 734 mmHg 62%
    07:00 +33°C° 0 mm 5 mps 734 mmHg 59%
    08:00 +34°C° 0 mm 6 mps 734 mmHg 56%
    09:00 +35°C° 0 mm 6 mps 734 mmHg 54%
    10:00 +37°C° 0 mm 5 mps 734 mmHg 48%
    11:00 +40°C° 0 mm 5 mps 734 mmHg 42%
    12:00 +42°C° 0 mm 4 mps 734 mmHg 36%
    13:00 +42°C° 0 mm 4 mps 733 mmHg 33%
    14:00 +43°C° 0 mm 4 mps 732 mmHg 31%
    15:00 +44°C° 0 mm 3 mps 732 mmHg 29%
    16:00 +42°C° 0.1 mm 3 mps 732 mmHg 31%
    17:00 +41°C° 0.1 mm 4 mps 732 mmHg 33%
    18:00 +40°C° 0.1 mm 4 mps 732 mmHg 36%
    19:00 +37°C° 1.2 mm 4 mps 732 mmHg 43%
    20:00 +35°C° 1.2 mm 5 mps 733 mmHg 50%
    21:00 +32°C° 1.2 mm 5 mps 734 mmHg 57%
    22:00 +32°C° 0 mm 5 mps 734 mmHg 59%
    23:00 +30°C° 0 mm 5 mps 734 mmHg 61%

    Day after tomorrow, 4 June, Thursday

    Time Temperature Precipitation Wind Pressure Humidity
    00:00 +30°C° 0 mm 4 mps 734 mmHg 63%
    01:00 +30°C° 0 mm 4 mps 734 mmHg 63%
    02:00 +30°C° 0 mm 4 mps 734 mmHg 62%
    03:00 +30°C° 0 mm 4 mps 734 mmHg 61%
    04:00 +30°C° 1.5 mm 5 mps 734 mmHg 66%
    05:00 +29°C° 1.5 mm 7 mps 735 mmHg 70%
    06:00 +29°C° 1.5 mm 8 mps 735 mmHg 75%
    07:00 +30°C° 0 mm 7 mps 735 mmHg 69%
    08:00 +32°C° 0 mm 6 mps 735 mmHg 64%
    09:00 +33°C° 0 mm 5 mps 735 mmHg 59%
    10:00 +34°C° 0 mm 4 mps 735 mmHg 54%
    11:00 +36°C° 0 mm 4 mps 734 mmHg 49%
    12:00 +37°C° 0 mm 3 mps 734 mmHg 45%
    13:00 +38°C° 0 mm 3 mps 733 mmHg 42%
    14:00 +39°C° 0 mm 3 mps 733 mmHg 39%
    15:00 +40°C° 0 mm 3 mps 733 mmHg 36%
    16:00 +39°C° 0 mm 3 mps 733 mmHg 38%
    17:00 +38°C° 0 mm 2 mps 733 mmHg 39%
    18:00 +38°C° 0 mm 2 mps 733 mmHg 41%
    19:00 +37°C° 0 mm 3 mps 733 mmHg 44%
    20:00 +36°C° 0 mm 3 mps 734 mmHg 46%
    21:00 +36°C° 0 mm 3 mps 734 mmHg 49%
    22:00 +35°C° 0 mm 4 mps 734 mmHg 53%
    23:00 +34°C° 0 mm 4 mps 734 mmHg 56%

    5 June, Friday

    Time Temperature Precipitation Wind Pressure Humidity
    00:00 +33°C° 0 mm 5 mps 734 mmHg 60%
    01:00 +33°C° 0 mm 5 mps 734 mmHg 61%
    02:00 +33°C° 0 mm 4 mps 734 mmHg 63%
    03:00 +32°C° 0 mm 4 mps 734 mmHg 64%
    04:00 +32°C° 0 mm 4 mps 734 mmHg 64%
    05:00 +32°C° 0 mm 4 mps 735 mmHg 64%
    06:00 +32°C° 0 mm 4 mps 735 mmHg 64%
    07:00 +33°C° 0 mm 5 mps 735 mmHg 61%
    08:00 +34°C° 0 mm 5 mps 736 mmHg 57%
    09:00 +35°C° 0 mm 5 mps 736 mmHg 54%
    10:00 +36°C° 0 mm 5 mps 736 mmHg 49%
    11:00 +39°C° 0 mm 5 mps 735 mmHg 43%
    12:00 +41°C° 0 mm 4 mps 735 mmHg 38%
    13:00 +41°C° 0 mm 4 mps 734 mmHg 35%
    14:00 +42°C° 0 mm 3 mps 734 mmHg 32%
    15:00 +42°C° 0 mm 2 mps 733 mmHg 29%
    16:00 +41°C° 0 mm 2 mps 733 mmHg 30%
    17:00 +41°C° 0 mm 2 mps 733 mmHg 31%
    18:00 +40°C° 0 mm 2 mps 733 mmHg 32%
    19:00 +39°C° 0 mm 2 mps 733 mmHg 36%
    20:00 +38°C° 0 mm 3 mps 734 mmHg 39%
    21:00 +37°C° 0 mm 3 mps 734 mmHg 43%
    22:00 +36°C° 0.1 mm 3 mps 734 mmHg 45%
    23:00 +35°C° 0.1 mm 3 mps 734 mmHg 48%

    6 June, Saturday

    Time Temperature Precipitation Wind Pressure Humidity
    00:00 +35°C° 0.1 mm 3 mps 735 mmHg 50%
    01:00 +34°C° 0.5 mm 3 mps 735 mmHg 53%
    02:00 +34°C° 0.5 mm 3 mps 735 mmHg 55%
    03:00 +33°C° 0.5 mm 3 mps 735 mmHg 58%
    04:00 +33°C° 0.1 mm 3 mps 735 mmHg 59%
    05:00 +32°C° 0.1 mm 4 mps 735 mmHg 60%
    06:00 +32°C° 0.1 mm 4 mps 735 mmHg 61%
    07:00 +33°C° 0 mm 4 mps 736 mmHg 58%
    08:00 +34°C° 0 mm 4 mps 736 mmHg 54%
    09:00 +35°C° 0 mm 5 mps 737 mmHg 50%
    10:00 +37°C° 0 mm 4 mps 736 mmHg 47%
    11:00 +38°C° 0 mm 4 mps 736 mmHg 43%
    12:00 +40°C° 0 mm 4 mps 735 mmHg 39%
    13:00 +41°C° 0 mm 4 mps 734 mmHg 37%
    14:00 +42°C° 0 mm 3 mps 734 mmHg 35%
    15:00 +42°C° 0 mm 3 mps 733 mmHg 33%
    16:00 +40°C° 0 mm 3 mps 733 mmHg 34%
    17:00 +40°C° 0 mm 3 mps 733 mmHg 36%
    18:00 +39°C° 0 mm 2 mps 733 mmHg 37%
    19:00 +37°C° 0.3 mm 3 mps 733 mmHg 44%
    20:00 +35°C° 0.3 mm 5 mps 734 mmHg 52%
    21:00 +33°C° 0.3 mm 6 mps 734 mmHg 59%
    22:00 +32°C° 0 mm 5 mps 734 mmHg 60%
    23:00 +32°C° 0 mm 4 mps 734 mmHg 62%

    7 June, Sunday

    Time Temperature Precipitation Wind Pressure Humidity
    00:00 +30°C° 0 mm 4 mps 735 mmHg 63%
    01:00 +30°C° 0.5 mm 4 mps 734 mmHg 63%
    02:00 +29°C° 0.5 mm 4 mps 734 mmHg 63%
    03:00 +29°C° 0.5 mm 4 mps 734 mmHg 63%
    04:00 +28°C° 1.6 mm 4 mps 734 mmHg 69%
    05:00 +28°C° 1.6 mm 4 mps 735 mmHg 76%
    06:00 +27°C° 1.6 mm 5 mps 735 mmHg 82%
    07:00 +28°C° 3 mm 5 mps 736 mmHg 76%
    08:00 +29°C° 3 mm 6 mps 736 mmHg 71%
    09:00 +29°C° 3 mm 6 mps 737 mmHg 65%
    10:00 +30°C° 0 mm 5 mps 736 mmHg 60%
    11:00 +32°C° 0 mm 5 mps 736 mmHg 55%
    12:00 +34°C° 0 mm 4 mps 735 mmHg 50%
    13:00 +34°C° 0 mm 4 mps 735 mmHg 48%
    14:00 +35°C° 0 mm 3 mps 734 mmHg 46%
    15:00 +36°C° 0 mm 3 mps 734 mmHg 43%
    16:00 +35°C° 0.1 mm 3 mps 734 mmHg 46%
    17:00 +34°C° 0.1 mm 4 mps 734 mmHg 48%
    18:00 +33°C° 0.1 mm 4 mps 734 mmHg 51%
    19:00 +31°C° 0 mm 3 mps 734 mmHg 56%
    20:00 +31°C° 0 mm 3 mps 735 mmHg 60%
    21:00 +30°C° 0 mm 2 mps 735 mmHg 65%
    22:00 +29°C° 0 mm 2 mps 735 mmHg 67%
    23:00 +29°C° 0 mm 2 mps 735 mmHg 68%
    Show more